Location: Edinburgh
(55.9500°N, 3.1600°W)
Time: 18:29:53
(UTC+01:00)

ISS - Pass Details

Date: 15 October 2017
Orbit: 401 x 408 km, 51.6° (Epoch: 23 October)

Event Time Altitude Azimuth Distance (km) Brightness Sun altitude
Rises 18:54:51 0° 271° (W) 2,326 2.5 -6.8°
Reaches altitude 10° 18:57:58 10° 238° (WSW) 1,464 0.2 -7.2°
Maximum altitude 18:59:17 12° 215° (SW) 1,352 -0.6 -7.4°
Drops below altitude 10° 19:00:35 10° 191° (SSW) 1,462 -0.8 -7.6°
Sets 19:03:42 0° 159° (SSE) 2,320 -0.2 -8.0°
